Flag for Lithuania Weather past 2 weeks in Vilnius, Lithuania

Now
52 °F

Clear.


Feels Like: 51 °F
Forecast: 49 / 66 °F
Wind: 3 mph from South

Location: Vilnius Airport

Current Time: May 23, 2015 at 8:49:20 AM

Latest Report: May 23, 2015 at 8:20 AM


Visibility: 5 mi

Pressure: 30.12 "Hg

Humidity: 82%

Dew point: 46 °F

Location of VilniusLocation

Historic Weather in Vilnius — Graph

°F

Vilnius temperature yesterday

Maximum temperature yesterday: 59 °F (at 3:20 PM)
Minimum temperature yesterday: 45 °F (at 11:20 PM)
Average temperature yesterday: 52 °F

Past Weeks' High & Low Weather Summary

 TemperatureHumidityPressure
High68 °F (May 19, 6:20 PM)100% (May 9, 3:50 AM)30.30 "Hg (May 9, 3:50 AM)
Low30 °F (May 19, 5:50 AM)34% (May 9, 3:50 PM)29.68 "Hg (May 14, 5:20 PM)
Average50 °F75%29.96 "Hg
* Reported May 8 7:20 AM — May 23 7:20 AM, Vilnius, Weather by CustomWeather, © 2015

Note: Actual official high and low records may vary slightly from our data, if they occured in-between our weather recording intervals... More about our weather records

Advertising

Vilnius weather history for previous 24 hours

 ConditionsComfort  
Time TempWeatherWind HumidityBarometerVisibility
7:20 AM
Sat, May 23
46 °FClear.3 mph100%30.12 "Hg4 mi
6:20 AM37 °FSnow. Cloudy.2 mph100%30.12 "Hg1 mi
5:50 AM39 °FSnow. Fog.3 mph100%30.12 "Hg1 mi
5:20 AM37 °FSnow. Fog.3 mph100%30.12 "Hg2 mi
4:50 AM39 °FFog.1 mph100%30.15 "Hg1 mi
4:20 AM39 °FFog.No wind100%30.15 "Hg1 mi
3:50 AM39 °FFog.1 mph100%30.15 "Hg1 mi
3:20 AM39 °FFog.1 mph100%30.15 "Hg0 mi
2:50 AM39 °FSleet. Fog.1 mph100%30.15 "Hg1 mi
2:20 AM41 °FFog.1 mph100%30.15 "Hg0 mi
1:50 AM43 °FFog.No wind100%30.18 "Hg2 mi
1:20 AM45 °FFog.No wind100%30.18 "Hg2 mi
12:50 AM45 °FFog.No wind100%30.18 "Hg2 mi
12:20 AM45 °FFog.1 mph93%30.18 "Hg2 mi
11:50 PM
Fri, May 22
45 °FSnow. Overcast.No wind93%30.18 "Hg2 mi
11:20 PM45 °FFog.1 mph100%30.18 "Hg2 mi
10:50 PM46 °FFog.1 mph93%30.18 "Hg2 mi
10:20 PM48 °FSunny.1 mph87%30.18 "Hg10 mi
9:50 PM50 °FSunny.No wind82%30.18 "Hg10 mi
9:20 PM54 °FSunny.1 mph72%30.18 "Hg10 mi
8:50 PM55 °FSunny.1 mph63%30.18 "Hg10 mi
8:20 PM57 °FBroken clouds.1 mph59%30.18 "HgN/A
7:50 PM57 °FBroken clouds.2 mph67%30.18 "HgN/A
7:20 PM57 °FBroken clouds.3 mph59%30.18 "HgN/A
6:50 PM57 °FBroken clouds.5 mph59%30.18 "HgN/A
6:20 PM57 °FBroken clouds.5 mph63%30.18 "HgN/A
5:50 PM59 °FBroken clouds.6 mph63%30.18 "HgN/A
5:20 PM59 °FBroken clouds.5 mph59%30.21 "HgN/A
4:50 PM59 °FBroken clouds.6 mph59%30.21 "HgN/A
4:20 PM57 °FBroken clouds.5 mph63%30.21 "HgN/A
3:50 PM59 °FBroken clouds.8 mph63%30.21 "HgN/A
3:20 PM59 °FBroken clouds.6 mph59%30.21 "HgN/A
2:50 PM57 °FBroken clouds.7 mph72%30.24 "HgN/A
2:20 PM55 °FBroken clouds.6 mph72%30.24 "HgN/A
1:50 PM55 °FBroken clouds.6 mph72%30.24 "HgN/A
1:20 PM54 °FBroken clouds.7 mph82%30.24 "HgN/A
12:50 PM54 °FBroken clouds.6 mph82%30.24 "HgN/A
12:20 PM52 °FCloudy.6 mph88%30.24 "HgN/A
11:50 AM52 °FSprinkles. Cloudy.7 mph88%30.24 "Hg4 mi
11:20 AM50 °FSprinkles. Cloudy.7 mph94%30.24 "Hg2 mi
10:50 AM50 °FSprinkles. Cloudy.7 mph94%30.24 "Hg2 mi
10:20 AM50 °FSprinkles. Mostly cloudy.6 mph88%30.24 "Hg2 mi
9:50 AM50 °FSprinkles. Mostly cloudy.5 mph88%30.24 "Hg2 mi
9:20 AM48 °FSprinkles. Mostly cloudy.5 mph94%30.24 "Hg2 mi
8:50 AM48 °FRain showers. Mostly cloudy.6 mph94%30.24 "Hg2 mi
8:20 AM48 °FBroken clouds.6 mph87%30.24 "HgN/A
Weather by CustomWeather, © 2015

See weather overviewHow to use our weather pages